Weather History for KBVU - June, 2013

Change the Weather History Date:

Sunday, June 23, 2013

  Actual Average (KLAS) Record (KLAS)
Temperature  
Mean Temperature 83 °F 89 °F  
Max Temperature 98 °F 101 °F 113 °F (1959)
Min Temperature 68 °F 77 °F 55 °F (1944)
Degree Days  
Heating Degree Days 0 0  
Month to date heating degree days 0  
Since 1 June heating degree days 0  
Since 1 July heating degree days 1950  
Cooling Degree Days 18 24  
Month to date cooling degree days 475  
Year to date cooling degree days 1025  
Since 1 June cooling degree days 475  
Growing Degree Days 33 (Base 50)    
Moisture  
Dew Point 28 °F    
Average Humidity 14    
Maximum Humidity 35    
Minimum Humidity 5    
Precipitation  
Precipitation 0.00 in 0.00 in 0.00 in (2015)
Month to date precipitation 0.05  
Year to date precipitation 2.06  
Snow  
Snow 0.00 in 0.00 in 0.00 in ()
Month to date snowfall 0.0  
Since 1 June snowfall 0.0  
Since 1 July snowfall 0.3  
Snow Depth -    
Sea Level Pressure  
Sea Level Pressure 29.70 in    
Wind  
Wind Speed 9 mph (SSE)    
Max Wind Speed 29 mph    
Max Gust Speed 36 mph    
Visibility 10 miles    
Events Thunderstorm    
T = Trace of Precipitation, MM = Missing Value Source: NWS Daily Summary

Daily Weather History Graph

Daily Weather History Graph

Search for Another Location

Airport or City:

Trip Planner

Search our weather history database for the weather conditions in past years. The results will help you decide how hot, cold, wet, or windy it might be!

Date:

Astronomy

Jun. 23, 2013 Rise Set
Actual Time 5:23 AM PDT 7:59 PM PDT
Civil Twilight 4:53 AM PDT 8:29 PM PDT
Nautical Twilight 4:15 AM PDT 9:07 PM PDT
Astronomical Twilight 3:34 AM PDT 9:49 PM PDT
Moon 8:18 PM PDT (6/23) 5:43 AM PDT (6/23)
Length of Visible Light 15h 36m
Length of Day
14h 36m
Full, 100% of the Moon is Illuminated
Jun 23
Full
Jun 29
Last Quarter
Jul 8
New
Jul 15
First Quarter
Jul 22
Full

Hourly Weather History & Observations

Time (PDT) Temp. Dew Point Humidity Pressure Visibility Wind Dir Wind Speed Gust Speed Precip Events Conditions
12:15 AM 75.2 °F 30.2 °F 19% 29.75 in 10.0 mi NNW 4.6 mph - N/A   Clear
12:35 AM 75.2 °F 32.0 °F 21% 29.75 in 10.0 mi Calm Calm - N/A   Clear
12:55 AM 73.4 °F 35.6 °F 25% 29.75 in 10.0 mi North 3.5 mph - N/A   Clear
1:15 AM 73.4 °F 35.6 °F 25% 29.75 in 10.0 mi Calm Calm - N/A   Clear
1:35 AM 73.4 °F 35.6 °F 25% 29.75 in 10.0 mi North 3.5 mph - N/A   Clear
1:55 AM 75.2 °F 28.4 °F 18% 29.75 in 10.0 mi Calm Calm - N/A   Clear
2:15 AM 80.6 °F 26.6 °F 14% 29.74 in 10.0 mi East 3.5 mph - N/A   Clear
2:35 AM 73.4 °F 37.4 °F 27% 29.74 in 10.0 mi Calm Calm - N/A   Clear
2:55 AM 71.6 °F 33.8 °F 25% 29.74 in 10.0 mi Calm Calm - N/A   Clear
3:15 AM 69.8 °F 37.4 °F 31% 29.74 in 10.0 mi NNE 3.5 mph - N/A   Clear
3:35 AM 69.8 °F 37.4 °F 31% 29.74 in 10.0 mi ENE 5.8 mph - N/A   Clear
3:55 AM 68.0 °F 39.2 °F 35% 29.73 in 10.0 mi NE 4.6 mph - N/A   Clear
4:15 AM 69.8 °F 32.0 °F 25% 29.74 in 10.0 mi NE 4.6 mph - N/A   Clear
4:35 AM 69.8 °F 35.6 °F 28% 29.74 in 10.0 mi ENE 3.5 mph - N/A   Clear
4:55 AM 69.8 °F 32.0 °F 25% 29.74 in 10.0 mi NNE 3.5 mph - N/A   Clear
5:15 AM 71.6 °F 28.4 °F 20% 29.74 in 10.0 mi North 4.6 mph - N/A   Clear
5:35 AM 71.6 °F 32.0 °F 23% 29.75 in 10.0 mi NE 4.6 mph - N/A   Clear
5:55 AM 73.4 °F 32.0 °F 22% 29.75 in 10.0 mi NE 4.6 mph - N/A   Clear
6:15 AM 71.6 °F 33.8 °F 25% 29.75 in 10.0 mi NE 5.8 mph - N/A   Clear
6:35 AM 75.2 °F 28.4 °F 18% 29.75 in 10.0 mi ENE 4.6 mph - N/A   Clear
6:55 AM 77.0 °F 32.0 °F 19% 29.76 in 10.0 mi NE 3.5 mph - N/A   Clear
7:15 AM 80.6 °F 32.0 °F 17% 29.76 in 10.0 mi Calm Calm - N/A   Clear
7:35 AM 82.4 °F 24.8 °F 12% 29.77 in 10.0 mi Calm Calm - N/A   Clear
7:55 AM 84.2 °F 24.8 °F 11% 29.77 in 10.0 mi South 4.6 mph - N/A   Clear
8:15 AM 82.4 °F 24.8 °F 12% 29.77 in 10.0 mi Calm Calm - N/A Thunderstorm Clear
8:35 AM 84.2 °F 23.0 °F 11% 29.78 in 10.0 mi Calm Calm - N/A   Clear
8:55 AM 86.0 °F 24.8 °F 11% 29.77 in 10.0 mi SSE 3.5 mph - N/A   Clear
9:15 AM 89.6 °F 26.6 °F 10% 29.77 in 10.0 mi SSE 13.8 mph 20.7 mph N/A   Clear
9:35 AM 89.6 °F 28.4 °F 11% 29.76 in 10.0 mi SSE 15.0 mph - N/A   Clear
9:55 AM 91.4 °F 28.4 °F 10% 29.76 in 10.0 mi SSE 15.0 mph - N/A   Clear
10:15 AM 91.4 °F 28.4 °F 10% 29.76 in 10.0 mi SE 17.3 mph - N/A   Clear
10:35 AM 93.2 °F 28.4 °F 10% 29.75 in 10.0 mi SSE 18.4 mph 23.0 mph N/A   Clear
10:55 AM 93.2 °F 30.2 °F 11% 29.75 in 10.0 mi SE 18.4 mph - N/A Thunderstorm Clear
11:15 AM 93.2 °F 28.4 °F 10% 29.74 in 10.0 mi SSE 17.3 mph 24.2 mph N/A   Clear
11:35 AM 93.2 °F 28.4 °F 10% 29.74 in 10.0 mi SSE 24.2 mph 31.1 mph N/A   Clear
11:55 AM 95.0 °F 26.6 °F 9% 29.73 in 10.0 mi SSE 20.7 mph 26.5 mph N/A   Clear
12:15 PM 95.0 °F 26.6 °F 9% 29.72 in 10.0 mi SE 18.4 mph 29.9 mph N/A   Clear
12:35 PM 96.8 °F 28.4 °F 9% 29.71 in 10.0 mi SSE 20.7 mph 29.9 mph N/A   Clear
12:55 PM 96.8 °F 26.6 °F 8% 29.71 in 10.0 mi SSE 26.5 mph 31.1 mph N/A Thunderstorm Clear
1:15 PM 96.8 °F 28.4 °F 9% 29.70 in 10.0 mi SSE 24.2 mph 33.4 mph N/A   Clear
1:35 PM 98.6 °F 28.4 °F 8% 29.69 in 10.0 mi SSE 21.9 mph 33.4 mph N/A   Clear
1:55 PM 98.6 °F 28.4 °F 8% 29.68 in 10.0 mi South 18.4 mph 27.6 mph N/A   Clear
2:15 PM 98.6 °F 28.4 °F 8% 29.68 in 10.0 mi SSE 24.2 mph 33.4 mph N/A   Clear
2:35 PM 96.8 °F 26.6 °F 8% 29.67 in 10.0 mi SE 28.8 mph 34.5 mph N/A   Clear
2:55 PM 96.8 °F 24.8 °F 8% 29.66 in 10.0 mi SSE 27.6 mph 35.7 mph N/A   Clear
3:15 PM 98.6 °F 24.8 °F 7% 29.66 in 10.0 mi SSE 25.3 mph 32.2 mph N/A   Clear
3:35 PM 98.6 °F 19.4 °F 6% 29.65 in 10.0 mi South 21.9 mph 33.4 mph N/A   Clear
3:55 PM 98.6 °F 17.6 °F 5% 29.64 in 10.0 mi South 26.5 mph 32.2 mph N/A   Clear
4:15 PM 98.6 °F 17.6 °F 5% 29.64 in 10.0 mi South 21.9 mph 35.7 mph N/A   Clear
4:35 PM 98.6 °F 21.2 °F 6% 29.63 in 10.0 mi SSE 23.0 mph 32.2 mph N/A   Clear
4:55 PM 98.6 °F 19.4 °F 6% 29.62 in 10.0 mi SSE 25.3 mph 33.4 mph N/A   Clear
5:15 PM 98.6 °F 23.0 °F 7% 29.62 in 10.0 mi South 23.0 mph 33.4 mph N/A   Clear
5:35 PM 96.8 °F 21.2 °F 7% 29.61 in 10.0 mi South 21.9 mph 33.4 mph N/A Thunderstorm Clear
5:55 PM 95.0 °F 23.0 °F 8% 29.61 in 10.0 mi South 18.4 mph 32.2 mph N/A   Clear
6:15 PM 95.0 °F 19.4 °F 6% 29.62 in 10.0 mi South 21.9 mph 28.8 mph N/A   Clear
6:35 PM 95.0 °F 19.4 °F 6% 29.62 in 10.0 mi South 18.4 mph 26.5 mph N/A   Clear
6:55 PM 93.2 °F 21.2 °F 7% 29.62 in 10.0 mi South 19.6 mph 25.3 mph N/A   Clear
7:15 PM 93.2 °F 21.2 °F 7% 29.62 in 10.0 mi South 17.3 mph 23.0 mph N/A   Clear
7:35 PM 93.2 °F 21.2 °F 7% 29.62 in 10.0 mi South 12.7 mph - N/A   Clear
7:55 PM 91.4 °F 21.2 °F 8% 29.62 in 10.0 mi South 15.0 mph 21.9 mph N/A   Clear
8:15 PM 91.4 °F 21.2 °F 8% 29.63 in 10.0 mi South 13.8 mph 19.6 mph N/A   Clear
8:35 PM 89.6 °F 19.4 °F 8% 29.63 in 10.0 mi South 11.5 mph - N/A   Clear
8:55 PM 89.6 °F 24.8 °F 10% 29.64 in 10.0 mi SSW 10.4 mph - N/A   Clear
9:15 PM 87.8 °F 26.6 °F 11% 29.65 in 10.0 mi SW 9.2 mph - N/A   Clear
9:35 PM 86.0 °F 28.4 °F 12% 29.66 in 10.0 mi SSW 10.4 mph - N/A   Clear
9:55 PM 86.0 °F 28.4 °F 12% 29.66 in 10.0 mi SSW 11.5 mph - N/A   Clear
10:15 PM 86.0 °F 30.2 °F 13% 29.66 in 10.0 mi SSW 13.8 mph - N/A   Clear
10:35 PM 84.2 °F 32.0 °F 15% 29.66 in 10.0 mi SSW 12.7 mph - N/A   Clear
10:55 PM 82.4 °F 32.0 °F 16% 29.66 in 10.0 mi SSW 18.4 mph 23.0 mph N/A   Clear
11:15 PM 82.4 °F 32.0 °F 16% 29.66 in 10.0 mi SW 18.4 mph 26.5 mph N/A   Clear
11:35 PM 82.4 °F 32.0 °F 16% 29.66 in 10.0 mi SSW 17.3 mph - N/A   Clear
11:55 PM 82.4 °F 32.0 °F 16% 29.67 in 10.0 mi SSW 17.3 mph - N/A   Clear